Time,TemperatureF,DewpointF,PressureIn,WindDirection,WindDirectionDegrees,WindSpeedMPH,WindSpeedGustMPH,Humidity,HourlyPrecipIn,Conditions,Clouds,dailyrainin,SolarRadiationWatts/m^2,SoftwareType,DateUTC
2013-03-11 00:02:00,46.0,45.0,30.48,WNW,295,4.0,7.0,95,-99.99,,,0.00,0.000000,,2013-03-11 07:02:00,
2013-03-11 00:12:00,46.0,45.0,30.48,WNW,295,4.0,7.0,95,-99.99,,,0.00,0.000000,,2013-03-11 07:12:00,
2013-03-11 00:32:00,46.0,45.0,30.46,West,264,5.0,9.0,95,-99.99,,,0.00,0.000000,,2013-03-11 07:32:00,
2013-03-11 00:42:00,46.0,45.0,30.46,West,264,5.0,9.0,95,-99.99,,,0.00,0.000000,,2013-03-11 07:42:00,
2013-03-11 00:52:00,46.0,45.0,30.46,West,264,5.0,9.0,95,-99.99,,,0.00,0.000000,,2013-03-11 07:52:00,
2013-03-11 01:02:00,46.0,45.0,30.46,West,264,5.0,9.0,95,-99.99,,,0.00,0.000000,,2013-03-11 08:02:00,
2013-03-11 01:11:00,46.0,45.0,30.46,West,264,5.0,9.0,95,-99.99,,,0.00,0.000000,,2013-03-11 08:11:00,
2013-03-11 01:42:00,46.0,45.0,30.47,WNW,282,5.0,9.0,96,-99.99,,,0.00,0.000000,,2013-03-11 08:42:00,
2013-03-11 01:52:00,46.0,45.0,30.47,WNW,282,5.0,9.0,96,-99.99,,,0.00,0.000000,,2013-03-11 08:52:00,
2013-03-11 02:02:00,46.0,45.0,30.47,WNW,282,5.0,9.0,96,-99.99,,,0.00,0.000000,,2013-03-11 09:02:00,
2013-03-11 02:12:00,46.0,45.0,30.47,WNW,282,5.0,9.0,96,-99.99,,,0.00,0.000000,,2013-03-11 09:12:00,
2013-03-11 02:42:00,46.0,45.0,30.47,WNW,301,2.0,4.0,97,-99.99,,,0.00,0.000000,,2013-03-11 09:42:00,
2013-03-11 02:52:00,46.0,45.0,30.47,WNW,301,2.0,4.0,97,-99.99,,,0.00,0.000000,,2013-03-11 09:52:00,
2013-03-11 03:02:00,46.0,45.0,30.47,WNW,301,2.0,4.0,97,-99.99,,,0.00,0.000000,,2013-03-11 10:02:00,
2013-03-11 03:12:00,46.0,45.0,30.47,WNW,301,2.0,4.0,97,-99.99,,,0.00,0.000000,,2013-03-11 10:12:00,
2013-03-11 03:42:00,46.0,45.0,30.47,West,266,3.0,8.0,97,-99.99,,,0.00,0.000000,,2013-03-11 10:42:00,
2013-03-11 03:52:00,46.0,45.0,30.47,West,266,3.0,8.0,97,-99.99,,,0.00,0.000000,,2013-03-11 10:52:00,
2013-03-11 04:02:00,46.0,45.0,30.47,West,266,3.0,8.0,97,-99.99,,,0.00,0.000000,,2013-03-11 11:02:00,
2013-03-11 04:11:00,46.0,45.0,30.47,West,266,3.0,8.0,97,-99.99,,,0.00,0.000000,,2013-03-11 11:11:00,
2013-03-11 04:32:00,46.0,45.0,30.46,NNW,344,1.0,4.0,97,-99.99,,,0.00,0.000000,,2013-03-11 11:32:00,
2013-03-11 04:42:00,46.0,45.0,30.46,NNW,344,1.0,4.0,97,-99.99,,,0.00,0.000000,,2013-03-11 11:42:00,
2013-03-11 04:53:00,46.0,45.0,30.46,NNW,344,1.0,4.0,97,-99.99,,,0.00,0.000000,,2013-03-11 11:53:00,
2013-03-11 05:02:00,46.0,45.0,30.46,NNW,344,1.0,4.0,97,-99.99,,,0.00,0.000000,,2013-03-11 12:02:00,
2013-03-11 05:11:00,46.0,45.0,30.46,NNW,344,1.0,4.0,97,-99.99,,,0.00,0.000000,,2013-03-11 12:11:00,
2013-03-11 05:42:00,46.0,45.0,30.45,WNW,294,1.0,2.0,96,-99.99,,,0.00,0.000000,,2013-03-11 12:42:00,
2013-03-11 05:53:00,46.0,45.0,30.45,WNW,294,1.0,2.0,96,-99.99,,,0.00,0.000000,,2013-03-11 12:53:00,
2013-03-11 06:02:00,46.0,45.0,30.45,WNW,294,1.0,2.0,96,-99.99,,,0.00,0.000000,,2013-03-11 13:02:00,
2013-03-11 06:12:00,46.0,45.0,30.45,WNW,294,1.0,2.0,96,-99.99,,,0.00,0.000000,,2013-03-11 13:12:00,
2013-03-11 06:32:00,45.0,45.0,30.44,NE,36,1.0,2.0,96,-99.99,,,0.00,0.000000,,2013-03-11 13:32:00,
2013-03-11 06:42:00,45.0,45.0,30.44,NE,36,1.0,2.0,96,-99.99,,,0.00,0.000000,,2013-03-11 13:42:00,
2013-03-11 06:52:00,45.0,45.0,30.44,NE,36,1.0,2.0,96,-99.99,,,0.00,0.000000,,2013-03-11 13:52:00,
2013-03-11 07:02:00,45.0,45.0,30.44,NE,36,1.0,2.0,96,-99.99,,,0.00,0.000000,,2013-03-11 14:02:00,
2013-03-11 07:12:00,45.0,45.0,30.44,NE,36,1.0,2.0,96,-99.99,,,0.00,0.000000,,2013-03-11 14:12:00,
2013-03-11 07:42:00,45.0,44.0,30.45,East,98,0.0,2.0,97,-99.99,,,0.00,0.000000,,2013-03-11 14:42:00,
2013-03-11 07:53:00,45.0,44.0,30.45,East,98,0.0,2.0,97,-99.99,,,0.00,0.000000,,2013-03-11 14:53:00,
2013-03-11 08:02:00,45.0,44.0,30.45,East,98,0.0,2.0,97,-99.99,,,0.00,0.000000,,2013-03-11 15:02:00,
2013-03-11 08:12:00,45.0,44.0,30.45,East,98,0.0,2.0,97,-99.99,,,0.00,0.000000,,2013-03-11 15:12:00,
2013-03-11 08:42:00,45.0,44.0,30.44,WNW,288,4.0,7.0,97,-99.99,,,0.00,22.900000,,2013-03-11 15:42:00,
2013-03-11 08:53:00,45.0,44.0,30.44,WNW,288,4.0,7.0,97,-99.99,,,0.00,22.900000,,2013-03-11 15:53:00,
2013-03-11 09:02:00,45.0,44.0,30.44,WNW,288,4.0,7.0,97,-99.99,,,0.00,22.900000,,2013-03-11 16:02:00,
2013-03-11 09:12:00,45.0,44.0,30.44,WNW,288,4.0,7.0,97,-99.99,,,0.00,22.900000,,2013-03-11 16:12:00,
2013-03-11 09:42:00,46.0,45.0,30.45,WSW,248,1.0,2.0,97,-99.99,,,-99.99,71.589996,,2013-03-11 16:42:00,
2013-03-11 09:52:00,46.0,45.0,30.45,WSW,248,1.0,2.0,97,-99.99,,,-99.99,71.589996,,2013-03-11 16:52:00,
2013-03-11 10:02:00,46.0,45.0,30.45,WSW,248,1.0,2.0,97,-99.99,,,-99.99,71.589996,,2013-03-11 17:02:00,
2013-03-11 10:13:00,46.0,45.0,30.45,WSW,248,1.0,2.0,97,-99.99,,,-99.99,71.589996,,2013-03-11 17:13:00,
2013-03-11 10:42:00,46.0,46.0,30.45,West,273,3.0,5.0,97,-99.99,,,0.00,110.639999,,2013-03-11 17:42:00,
2013-03-11 10:53:00,46.0,46.0,30.45,West,273,3.0,5.0,97,-99.99,,,0.00,110.639999,,2013-03-11 17:53:00,
2013-03-11 11:02:00,46.0,46.0,30.45,West,273,3.0,5.0,97,-99.99,,,0.00,110.639999,,2013-03-11 18:02:00,
2013-03-11 11:11:00,46.0,46.0,30.45,West,273,3.0,5.0,97,-99.99,,,0.00,110.639999,,2013-03-11 18:11:00,
2013-03-11 11:42:00,48.0,46.0,30.43,West,277,3.0,4.0,94,-99.99,,,0.00,143.419998,,2013-03-11 18:42:00,
2013-03-11 11:53:00,48.0,46.0,30.43,West,277,3.0,4.0,94,-99.99,,,0.00,143.419998,,2013-03-11 18:53:00,
2013-03-11 12:02:00,48.0,46.0,30.43,West,277,3.0,4.0,94,-99.99,,,0.00,143.419998,,2013-03-11 19:02:00,
2013-03-11 12:12:00,48.0,46.0,30.43,West,277,3.0,4.0,94,-99.99,,,0.00,143.419998,,2013-03-11 19:12:00,
2013-03-11 12:42:00,49.0,47.0,30.43,West,277,3.0,6.0,93,-99.99,,,0.00,213.500000,,2013-03-11 19:42:00,
2013-03-11 12:52:00,49.0,47.0,30.43,West,277,3.0,6.0,93,-99.99,,,0.00,213.500000,,2013-03-11 19:52:00,
2013-03-11 13:02:00,49.0,47.0,30.43,West,277,3.0,6.0,93,-99.99,,,0.00,213.500000,,2013-03-11 20:02:00,
2013-03-11 13:11:00,49.0,47.0,30.43,West,277,3.0,6.0,93,-99.99,,,0.00,213.500000,,2013-03-11 20:11:00,
2013-03-11 13:43:00,50.0,47.0,30.41,West,275,4.0,6.0,87,-99.99,,,0.00,191.759995,,2013-03-11 20:43:00,
2013-03-11 13:53:00,50.0,47.0,30.41,West,275,4.0,6.0,87,-99.99,,,0.00,191.759995,,2013-03-11 20:53:00,
2013-03-11 14:02:00,50.0,47.0,30.41,West,275,4.0,6.0,87,-99.99,,,0.00,191.759995,,2013-03-11 21:02:00,
2013-03-11 14:12:00,50.0,47.0,30.41,West,275,4.0,6.0,87,-99.99,,,0.00,191.759995,,2013-03-11 21:12:00,
2013-03-11 14:43:00,50.0,48.0,30.39,West,272,4.0,7.0,91,-99.99,,,0.00,207.800003,,2013-03-11 21:43:00,
2013-03-11 14:53:00,50.0,48.0,30.39,West,272,4.0,7.0,91,-99.99,,,0.00,207.800003,,2013-03-11 21:53:00,
2013-03-11 15:02:00,50.0,48.0,30.39,West,272,4.0,7.0,91,-99.99,,,0.00,207.800003,,2013-03-11 22:02:00,
2013-03-11 15:12:00,50.0,48.0,30.39,West,272,4.0,7.0,91,-99.99,,,0.00,207.800003,,2013-03-11 22:12:00,
2013-03-11 15:32:00,50.0,46.0,30.38,West,268,5.0,10.0,88,-99.99,,,0.00,119.709999,,2013-03-11 22:32:00,
2013-03-11 15:43:00,50.0,46.0,30.38,West,268,5.0,10.0,88,-99.99,,,0.00,119.709999,,2013-03-11 22:43:00,
2013-03-11 15:53:00,50.0,46.0,30.38,West,268,5.0,10.0,88,-99.99,,,0.00,119.709999,,2013-03-11 22:53:00,
2013-03-11 16:02:00,50.0,46.0,30.38,West,268,5.0,10.0,88,-99.99,,,0.00,119.709999,,2013-03-11 23:02:00,
2013-03-11 16:12:00,50.0,46.0,30.38,West,268,5.0,10.0,88,-99.99,,,0.00,119.709999,,2013-03-11 23:12:00,
2013-03-11 16:43:00,50.0,48.0,30.36,West,277,3.0,5.0,93,-99.99,,,0.00,116.339996,,2013-03-11 23:43:00,
2013-03-11 16:53:00,50.0,48.0,30.36,West,277,3.0,5.0,93,-99.99,,,0.00,116.339996,,2013-03-11 23:53:00,
2013-03-11 17:02:00,50.0,48.0,30.36,West,277,3.0,5.0,93,-99.99,,,0.00,116.339996,,2013-03-12 00:02:00,
2013-03-11 17:12:00,50.0,48.0,30.36,West,277,3.0,5.0,93,-99.99,,,0.00,116.339996,,2013-03-12 00:12:00,
2013-03-11 17:42:00,50.0,48.0,30.34,West,264,3.0,5.0,94,-99.99,,,0.00,75.190002,,2013-03-12 00:42:00,
2013-03-11 17:53:00,50.0,48.0,30.34,West,264,3.0,5.0,94,-99.99,,,0.00,75.190002,,2013-03-12 00:53:00,
2013-03-11 18:02:00,50.0,48.0,30.34,West,264,3.0,5.0,94,-99.99,,,0.00,75.190002,,2013-03-12 01:02:00,
2013-03-11 18:11:00,50.0,48.0,30.34,West,264,3.0,5.0,94,-99.99,,,0.00,75.190002,,2013-03-12 01:11:00,
2013-03-11 18:42:00,50.0,48.0,30.33,WNW,296,2.0,6.0,94,-99.99,,,0.00,32.540001,,2013-03-12 01:42:00,
2013-03-11 18:52:00,50.0,48.0,30.33,WNW,296,2.0,6.0,94,-99.99,,,0.00,32.540001,,2013-03-12 01:52:00,
2013-03-11 19:02:00,50.0,48.0,30.33,WNW,296,2.0,6.0,94,-99.99,,,0.00,32.540001,,2013-03-12 02:02:00,
2013-03-11 19:12:00,50.0,48.0,30.33,WNW,296,2.0,6.0,94,-99.99,,,0.00,32.540001,,2013-03-12 02:12:00,
2013-03-11 19:42:00,50.0,48.0,30.32,NNW,348,2.0,5.0,93,-99.99,,,0.00,1.280000,,2013-03-12 02:42:00,
2013-03-11 19:52:00,50.0,48.0,30.32,NNW,348,2.0,5.0,93,-99.99,,,0.00,1.280000,,2013-03-12 02:52:00,
2013-03-11 20:02:00,50.0,48.0,30.32,NNW,348,2.0,5.0,93,-99.99,,,0.00,1.280000,,2013-03-12 03:02:00,
2013-03-11 20:12:00,50.0,48.0,30.32,NNW,348,2.0,5.0,93,-99.99,,,0.00,1.280000,,2013-03-12 03:12:00,
2013-03-11 20:42:00,50.0,48.0,30.32,NE,40,1.0,3.0,95,-99.99,,,0.00,0.000000,,2013-03-12 03:42:00,
2013-03-11 20:52:00,50.0,48.0,30.32,NE,40,1.0,3.0,95,-99.99,,,0.00,0.000000,,2013-03-12 03:52:00,
2013-03-11 21:02:00,50.0,48.0,30.32,NE,40,1.0,3.0,95,-99.99,,,0.00,0.000000,,2013-03-12 04:02:00,
2013-03-11 21:12:00,50.0,48.0,30.32,NE,40,1.0,3.0,95,-99.99,,,0.00,0.000000,,2013-03-12 04:12:00,
2013-03-11 21:42:00,49.0,48.0,30.31,SSW,212,0.0,0.0,96,-99.99,,,0.00,0.000000,,2013-03-12 04:42:00,
2013-03-11 21:52:00,49.0,48.0,30.31,SSW,212,0.0,0.0,96,-99.99,,,0.00,0.000000,,2013-03-12 04:52:00,
2013-03-11 22:02:00,49.0,48.0,30.31,SSW,212,0.0,0.0,96,-99.99,,,0.00,0.000000,,2013-03-12 05:02:00,
2013-03-11 22:12:00,49.0,48.0,30.31,SSW,212,0.0,0.0,96,-99.99,,,0.00,0.000000,,2013-03-12 05:12:00,
2013-03-11 22:32:00,49.0,48.0,30.31,WSW,258,0.0,1.0,96,-99.99,,,0.00,0.000000,,2013-03-12 05:32:00,
2013-03-11 22:42:00,49.0,48.0,30.31,WSW,258,0.0,1.0,96,-99.99,,,0.00,0.000000,,2013-03-12 05:42:00,
2013-03-11 22:52:00,49.0,48.0,30.31,WSW,258,0.0,1.0,96,-99.99,,,0.00,0.000000,,2013-03-12 05:52:00,
2013-03-11 23:02:00,49.0,48.0,30.31,WSW,258,0.0,1.0,96,-99.99,,,0.00,0.000000,,2013-03-12 06:02:00,
2013-03-11 23:11:00,49.0,48.0,30.31,WSW,258,0.0,1.0,96,-99.99,,,0.00,0.000000,,2013-03-12 06:11:00,
2013-03-11 23:32:00,50.0,49.0,30.30,WNW,303,2.0,5.0,97,-99.99,,,0.00,0.000000,,2013-03-12 06:32:00,
2013-03-11 23:42:00,50.0,49.0,30.30,WNW,303,2.0,5.0,97,-99.99,,,0.00,0.000000,,2013-03-12 06:42:00,
2013-03-11 23:52:00,50.0,49.0,30.30,WNW,303,2.0,5.0,97,-99.99,,,0.00,0.000000,,2013-03-12 06:52:00,